#timestamp,LO_Frequency,Hit 
1504166415.9,286046993.6,N
1504166435.7,286046995.0,N
1504166455.5,286046995.6,N
1504166475.3,286046998.0,N
1504166495.2,286046997.6,N
1504166515.0,286046995.3,N
1504166515.9,286046995.3,N
1504166535.7,286046996.0,N
1504166555.6,286046993.5,P
1504166575.4,286046998.9,N
1504166595.2,286046998.8,N
1504166615.1,286047000.3,N
1504166616.0,286047000.3,N
1504166635.8,286047001.4,N
1504166655.6,286046999.7,N
1504166675.5,286047001.0,N
1504166695.3,286046998.2,N
1504166715.1,286046999.9,N
1504166735.9,286046999.6,N
1504166755.7,286046998.8,N
1504166775.5,286046998.5,N
1504166795.4,286046996.7,N
1504166815.2,286046999.0,N
1504166835.0,286047001.2,N
1504166835.9,286047001.2,N
1504166855.8,286046998.6,N
1504166875.6,286046996.5,N
1504166895.4,286046997.1,N
1504166915.2,286046997.6,N
1504166935.1,286046995.8,N
1504166936.0,286046995.8,N
1504166955.8,286046995.2,N
1504166975.6,286046995.2,N
1504166995.5,286046995.4,N
1504167015.3,286046994.1,N
1504167035.1,286046994.1,N
1504167055.9,286046995.4,N
1504167075.7,286046995.1,N
1504167095.5,286046996.4,N
1504167115.4,286046996.0,N
1504167135.2,286046995.7,N
1504167155.0,286046994.7,N
1504167155.9,286046994.7,N
1504167175.8,286046994.7,N
1504167195.6,286046996.1,N
1504167215.4,286046994.8,N
1504167235.3,286046990.1,P
1504167255.1,286046997.7,N
1504167256.0,286046997.7,N
1504167275.8,286046997.2,N
1504167295.7,286046994.0,N
1504167315.5,286046993.5,N
1504167335.3,286046992.0,P
1504167355.2,286046998.3,N
1504167375.9,286046996.6,N
1504167395.7,286046995.0,N
1504167415.6,286046995.0,N
1504167435.4,286046997.7,N
1504167455.2,286046995.2,N
1504167475.1,286046995.4,N
1504167476.0,286046995.4,N
1504167495.8,286046996.6,N
1504167515.6,286046997.1,N
1504167535.4,286046999.5,N
1504167555.3,286046997.6,N
1504167575.1,286046996.1,N
1504167595.9,286046993.3,P
1504167615.7,286046999.5,N
1504167635.5,286046997.1,N
1504167655.3,286046998.4,N
1504167675.2,286046996.8,N
1504167695.0,286046996.9,N
1504167695.9,286046996.9,N
1504167715.7,286046996.8,N
1504167735.6,286046996.9,N
1504167755.4,286046999.3,N
1504167775.2,286047001.2,N
1504167795.1,286047001.1,N
1504167796.0,286047001.1,N
1504167815.8,286046998.9,N
1504167835.6,286046998.7,N
1504167855.5,286046999.4,N
1504167875.3,286046996.5,N
1504167895.1,286046995.2,N
1504167915.9,286046995.8,N
1504167935.7,286046993.3,P
1504167955.5,286046997.0,N
1504167975.4,286046996.5,N
1504167995.2,286046998.0,N
1504168015.0,286046996.7,N
1504168015.9,286046996.7,N
1504168035.8,286046999.2,N
1504168055.6,286047002.8,N
1504168075.4,286046999.5,N
1504168095.2,286047001.2,N
1504168115.1,286047002.7,N
1504168116.0,286047002.7,N
1504168135.8,286047000.6,N
1504168155.6,286047002.6,N
1504168175.5,286047000.1,N
1504168195.3,286047002.3,N
1504168215.1,286047002.1,N
1504168235.9,286047002.6,N
1504168255.7,286047002.7,N
1504168275.5,286047002.3,N
1504168295.4,286046999.8,N
1504168315.2,286047002.8,N
1504168335.0,286046999.8,N
1504168335.9,286046999.8,N
1504168355.7,286047000.4,N
1504168375.6,286047000.2,N
1504168395.4,286047000.3,N
1504168415.2,286046999.9,N
1504168435.1,286047000.7,N
1504168436.0,286047000.7,N
1504168455.8,286047000.1,N
1504168475.6,286046998.1,N
1504168495.5,286046998.2,N
1504168515.3,286046996.7,N
1504168535.1,286046997.0,N
1504168555.9,286046999.6,N
1504168575.7,286046998.8,N
1504168595.5,286047001.2,N
1504168615.4,286046997.5,N
1504168635.2,286046995.5,N
1504168655.0,286046993.6,P
1504168655.9,286046993.6,N
1504168675.8,286046995.8,N
1504168695.6,286046996.4,N
1504168715.4,286046992.1,P
1504168735.3,286046999.2,N
1504168755.1,286046998.7,N
1504168775.8,286046999.3,N
1504168795.7,286046995.2,N
1504168815.5,286046998.0,N
1504168835.3,286046995.1,N
1504168855.2,286046997.0,N
1504168875.9,286046997.3,N
1504168895.7,286046997.1,N
1504168915.5,286046996.7,N
1504168935.4,286046995.7,N
1504168955.2,286046998.0,N
1504168975.0,286046995.7,N
1504168975.9,286046995.7,N
1504168995.8,286046993.7,P
1504169015.6,286046999.0,N
1504169035.4,286046998.5,N
1504169055.3,286046999.9,N
1504169075.1,286047000.9,N
1504169095.8,286046999.6,N
1504169115.7,286046997.7,N
1504169135.5,286046997.4,N
1504169155.3,286046996.6,N
1504169175.2,286046995.4,N
1504169195.9,286046995.1,N
1504169215.7,286046995.3,N
1504169235.6,286046993.5,P
1504169255.4,286046997.1,N
1504169275.2,286046996.2,N
1504169295.1,286046995.8,N
1504169296.0,286046995.8,P
1504169315.8,286046998.5,P
1504169335.6,286047000.8,N
1504169355.5,286046998.9,N
1504169375.3,286047001.1,N
1504169395.1,286046997.7,N
1504169415.9,286046996.8,N
1504169435.7,286046999.3,N
1504169455.5,286046997.3,N
1504169475.4,286046994.9,N
1504169495.2,286046997.5,N
1504169515.0,286046997.4,N
1504169515.9,286046997.4,N
1504169535.8,286046995.5,N
1504169555.6,286046995.5,N
1504169575.4,286046997.2,N
1504169595.2,286046999.3,N
1504169615.1,286046996.9,N
1504169616.0,286046996.9,N
1504169635.8,286046999.0,N
1504169655.6,286046997.0,N
1504169675.5,286046996.8,N
1504169695.3,286046997.2,N
1504169715.1,286046999.4,N
1504169735.9,286046998.5,N
1504169755.7,286046997.9,N
1504169775.5,286046992.1,P
1504169795.4,286046999.4,N
1504169815.2,286046999.6,N
1504169835.0,286046993.5,N
1504169835.9,286046993.5,N
1504169855.8,286046995.2,N
1504169875.6,286046997.3,N
1504169895.4,286046998.0,N
1504169915.3,286046996.8,N
1504169935.1,286046996.2,N
1504169936.0,286046996.2,N
1504169955.8,286046994.2,N
1504169975.7,286046995.1,N
1504169995.5,286046997.0,N
